| time (UTC) | temp F | wind direction | speed MPH | gust MPH | rain 1hr in | rain 24hr in | rain mn in | humidity % | barometer mb |
| 20260831135051 | 72 | 169 | 2.0 | 8.0 | 0.00 | 0.07 | 0.07 | 74 | 1014.1 |
| 20260831134047 | 70 | 303 | 2.0 | 8.0 | 0.00 | 0.07 | 0.07 | 75 | 1014.2 |
| 20260831133045 | 67 | 64 | 2.0 | 4.0 | 0.00 | 0.07 | 0.07 | 80 | 1014.3 |
| 20260831132041 | 67 | 296 | 1.0 | 5.0 | 0.00 | 0.07 | 0.07 | 84 | 1014.6 |
| 20260831131038 | 70 | 207 | 3.0 | 11.0 | 0.00 | 0.07 | 0.07 | 78 | 1014.5 |
| 20260831125031 | 73 | 250 | 5.0 | 14.0 | 0.00 | 0.07 | 0.07 | 65 | 1013.9 |
| 20260831124029 | 75 | 227 | 3.0 | 11.0 | 0.00 | 0.07 | 0.07 | 64 | 1013.9 |
| 20260831123025 | 76 | 209 | 2.0 | 8.0 | 0.00 | 0.07 | 0.07 | 61 | 1013.8 |
| 20260831121019 | 73 | 209 | 4.0 | 11.0 | 0.00 | 0.07 | 0.07 | 65 | 1013.8 |
| 20260831120016 | 73 | 292 | 2.0 | 9.0 | 0.00 | 0.07 | 0.07 | 67 | 1013.9 |
| 20260831115113 | 72 | 240 | 1.0 | 3.0 | 0.00 | 0.07 | 0.07 | 69 | 1014.1 |
| 20260831114130 | 72 | 188 | 3.0 | 10.0 | 0.00 | 0.07 | 0.07 | 68 | 1014.2 |
| 20260831111100 | 73 | 153 | 1.0 | 7.0 | 0.00 | 0.07 | 0.07 | 68 | 1014.3 |
| 20260831110056 | 73 | 194 | 2.0 | 4.0 | 0.00 | 0.07 | 0.07 | 66 | 1014.3 |
| 20260831105053 | 73 | 258 | 2.0 | 4.0 | 0.00 | 0.07 | 0.07 | 64 | 1014.3 |
| 20260831104050 | 74 | 220 | 2.0 | 8.0 | 0.00 | 0.07 | 0.07 | 68 | 1014.2 |
| 20260831103047 | 72 | 229 | 3.0 | 10.0 | 0.00 | 0.07 | 0.07 | 67 | 1014.3 |
| 20260831102044 | 71 | 244 | 3.0 | 11.0 | 0.00 | 0.07 | 0.07 | 70 | 1014.3 |
| 20260831101040 | 72 | 231 | 4.0 | 15.0 | 0.00 | 0.07 | 0.07 | 71 | 1014.4 |
| 20260831100037 | 72 | 268 | 3.0 | 11.0 | 0.00 | 0.07 | 0.07 | 72 | 1014.4 |
| 20260831095034 | 70 | 241 | 3.0 | 11.0 | 0.00 | 0.07 | 0.07 | 74 | 1014.4 |
| 20260831094031 | 69 | 235 | 1.0 | 6.0 | 0.00 | 0.07 | 0.07 | 79 | 1014.5 |
| 20260831093049 | 68 | 209 | 3.0 | 9.0 | 0.00 | 0.07 | 0.07 | 80 | 1014.5 |
| 20260831092025 | 67 | 244 | 3.0 | 8.0 | 0.00 | 0.07 | 0.07 | 83 | 1014.7 |
| 20260831090039 | 68 | 215 | 5.0 | 15.0 | 0.00 | 0.07 | 0.07 | 82 | 1014.4 |
| 20260831085015 | 68 | 250 | 4.0 | 15.0 | 0.00 | 0.07 | 0.07 | 83 | 1014.3 |
| 20260831084112 | 68 | 228 | 2.0 | 8.0 | 0.00 | 0.07 | 0.07 | 85 | 1014.3 |
| 20260831082106 | 67 | 279 | 1.0 | 4.0 | 0.00 | 0.07 | 0.07 | 87 | 1014.3 |
| 20260831081102 | 67 | 313 | 2.0 | 5.0 | 0.00 | 0.07 | 0.07 | 88 | 1014.2 |
| 20260831075116 | 66 | 255 | 3.0 | 11.0 | 0.00 | 0.07 | 0.07 | 89 | 1013.9 |
| 20260831073050 | 65 | 248 | 1.0 | 5.0 | 0.00 | 0.07 | 0.07 | 94 | 1013.9 |
| 20260831072107 | 64 | 236 | 2.0 | 10.0 | 0.00 | 0.07 | 0.07 | 95 | 1013.8 |
| 20260831071044 | 64 | 197 | 2.0 | 7.0 | 0.00 | 0.07 | 0.07 | 96 | 1013.7 |
| 20260831065038 | 63 | 224 | 2.0 | 6.0 | 0.00 | 0.07 | 0.07 | 98 | 1013.7 |
| 20260831064035 | 63 | 199 | 1.0 | 6.0 | 0.00 | 0.07 | 0.07 | 98 | 1013.6 |
| 20260831063032 | 62 | 214 | 1.0 | 4.0 | 0.00 | 0.07 | 0.07 | 99 | 1013.5 |
| 20260831062028 | 62 | 214 | 1.0 | 7.0 | 0.00 | 0.07 | 0.07 | 99 | 1013.4 |
| 20260831061025 | 62 | 225 | 0.0 | 8.0 | 0.00 | 0.07 | 0.07 | 99 | 1013.2 |
| 20260831060021 | 62 | 215 | 1.0 | 5.0 | 0.00 | 0.07 | 0.07 | 99 | 1013.2 |
| 20260831055040 | 61 | 180 | 0.0 | 2.0 | 0.00 | 0.07 | 0.07 | 99 | 1013.2 |
| 20260831054015 | 61 | 196 | 1.0 | 5.0 | 0.00 | 0.07 | 0.07 | 99 | 1013.0 |
| 20260831053134 | 61 | 0.0 | 2.0 | 0.00 | 0.07 | 0.07 | 99 | 1012.8 | |
| 20260831052129 | 61 | 225 | 0.0 | 2.0 | 0.00 | 0.07 | 0.07 | 99 | 1012.7 |
| 20260831051106 | 61 | 0.0 | 0.0 | 0.00 | 0.07 | 0.07 | 99 | 1012.6 | |
| 20260831044056 | 61 | 0.0 | 0.0 | 0.00 | 0.08 | 0.07 | 99 | 1012.4 | |
| 20260831043053 | 61 | 0.0 | 0.0 | 0.00 | 0.08 | 0.07 | 99 | 1012.3 | |
| 20260831042050 | 61 | 0.0 | 0.0 | 0.00 | 0.08 | 0.07 | 99 | 1012.3 | |
| 20260831040104 | 61 | 0.0 | 2.0 | 0.02 | 0.08 | 0.07 | 99 | 1011.9 | |
| 20260831035101 | 60 | 180 | 0.0 | 2.0 | 0.02 | 0.08 | 0.07 | 99 | 1011.9 |
| 20260831034037 | 61 | 0.0 | 0.0 | 0.06 | 0.08 | 0.07 | 99 | 1011.7 | |
| 20260831033034 | 61 | 0.0 | 0.0 | 0.07 | 0.08 | 0.07 | 99 | 1012.2 | |
| 20260831032031 | 61 | 0.0 | 1.0 | 0.07 | 0.08 | 0.07 | 99 | 1012.0 | |
| 20260831031017 | 61 | 0.0 | 2.0 | 0.06 | 0.07 | 0.06 | 99 | 1012.3 | |
| 20260831030114 | 61 | 220 | 1.0 | 4.0 | 0.05 | 0.06 | 0.05 | 98 | 1012.4 |
| 20260831023103 | 60 | 0.0 | 0.0 | 0.00 | 0.01 | 0.00 | 98 | 1011.6 | |
| 20260831022059 | 60 | 0.0 | 0.0 | 0.00 | 0.01 | 0.00 | 99 | 1011.5 | |
| 20260831020053 | 59 | 0.0 | 0.0 | 0.00 | 0.01 | 0.00 | 99 | 1011.3 | |
| 20260831015049 | 59 | 0.0 | 0.0 | 0.00 | 0.01 | 0.00 | 99 | 1011.4 | |
| 20260831014046 | 58 | 0.0 | 0.0 | 0.00 | 0.01 | 0.00 | 99 | 1011.5 | |
| 20260831012040 | 57 | 0.0 | 0.0 | 0.00 | 0.01 | 0.00 | 99 | 1011.6 | |
| 20260831011037 | 56 | 0.0 | 0.0 | 0.00 | 0.01 | 0.00 | 99 | 1011.8 | |
| 20260831005030 | 56 | 0.0 | 0.0 | 0.00 | 0.01 | 0.00 | 99 | 1012.0 | |
| 20260831003024 | 55 | 0.0 | 0.0 | 0.00 | 0.01 | 0.00 | 99 | 1012.2 | |
| 20260831002021 | 55 | 0.0 | 0.0 | 0.00 | 0.01 | 0.00 | 99 | 1012.3 | |
| 20260831001018 | 54 | 0.0 | 0.0 | 0.00 | 0.01 | 0.00 | 99 | 1012.5 | |
| 20260831000035 | 54 | 0.0 | 0.0 | 0.00 | 0.01 | 0.00 | 99 | 1012.6 | |
| 20260830235112 | 54 | 0.0 | 0.0 | 0.00 | 0.01 | 0.00 | 99 | 1012.6 | |
| 20260830234109 | 54 | 0.0 | 0.0 | 0.00 | 0.01 | 0.00 | 99 | 1012.7 | |
| 20260830233106 | 54 | 0.0 | 0.0 | 0.00 | 0.01 | 0.00 | 99 | 1012.7 | |
| 20260830232123 | 54 | 0.0 | 0.0 | 0.00 | 0.01 | 0.00 | 99 | 1012.7 | |
| 20260830231059 | 54 | 0.0 | 0.0 | 0.00 | 0.01 | 0.00 | 99 | 1012.9 | |
| 20260830230056 | 54 | 0.0 | 0.0 | 0.00 | 0.01 | 0.00 | 99 | 1013.0 | |
| 20260830225053 | 54 | 0.0 | 0.0 | 0.00 | 0.01 | 0.00 | 99 | 1013.2 | |
| 20260830223047 | 55 | 0.0 | 0.0 | 0.00 | 0.01 | 0.00 | 99 | 1013.3 | |
| 20260830222103 | 55 | 0.0 | 0.0 | 0.00 | 0.01 | 0.00 | 99 | 1013.3 | |
| 20260830221100 | 55 | 0.0 | 0.0 | 0.00 | 0.01 | 0.00 | 99 | 1013.4 | |
| 20260830220037 | 55 | 0.0 | 0.0 | 0.00 | 0.01 | 0.00 | 99 | 1013.4 | |
| 20260830215034 | 55 | 0.0 | 0.0 | 0.00 | 0.01 | 0.01 | 99 | 1013.4 | |
| 20260830213028 | 56 | 0.0 | 0.0 | 0.00 | 0.01 | 0.01 | 99 | 1013.4 | |
| 20260830212025 | 56 | 0.0 | 0.0 | 0.00 | 0.01 | 0.01 | 98 | 1013.4 | |
| 20260830211022 | 57 | 0.0 | 0.0 | 0.00 | 0.01 | 0.01 | 98 | 1013.3 | |
| 20260830205016 | 57 | 0.0 | 0.0 | 0.00 | 0.01 | 0.01 | 98 | 1013.2 | |
| 20260830204113 | 58 | 0.0 | 0.0 | 0.00 | 0.01 | 0.01 | 98 | 1013.3 | |
| 20260830202106 | 57 | 0.0 | 0.0 | 0.00 | 0.01 | 0.01 | 97 | 1013.3 | |
| 20260830200140 | 57 | 0.0 | 0.0 | 0.00 | 0.01 | 0.01 | 97 | 1013.3 | |
| 20260830195057 | 58 | 0.0 | 0.0 | 0.00 | 0.01 | 0.01 | 96 | 1013.3 | |
| 20260830194054 | 59 | 0.0 | 0.0 | 0.00 | 0.01 | 0.01 | 95 | 1013.3 | |
| 20260830193051 | 60 | 0.0 | 0.0 | 0.00 | 0.01 | 0.01 | 94 | 1013.4 | |
| 20260830191044 | 61 | 0.0 | 0.0 | 0.00 | 0.01 | 0.01 | 92 | 1013.3 | |
| 20260830190041 | 62 | 0.0 | 0.0 | 0.00 | 0.01 | 0.01 | 89 | 1013.2 | |
| 20260830185038 | 63 | 0.0 | 0.0 | 0.00 | 0.01 | 0.01 | 88 | 1013.2 | |
| 20260830181025 | 67 | 0.0 | 0.0 | 0.00 | 0.01 | 0.01 | 79 | 1012.8 | |
| 20260830174016 | 70 | 0.0 | 0.0 | 0.00 | 0.01 | 0.01 | 76 | 1012.5 | |
| 20260830173113 | 70 | 0.0 | 0.0 | 0.00 | 0.01 | 0.01 | 76 | 1012.5 | |
| 20260830172109 | 72 | 0.0 | 0.0 | 0.00 | 0.01 | 0.01 | 75 | 1012.6 | |
| 20260830171106 | 73 | 0.0 | 0.0 | 0.00 | 0.01 | 0.01 | 70 | 1012.5 | |
| 20260830170103 | 75 | 0.0 | 2.0 | 0.00 | 0.01 | 0.01 | 62 | 1012.5 | |
| 20260830165100 | 76 | 180 | 0.0 | 2.0 | 0.00 | 0.01 | 0.01 | 63 | 1012.5 |
| 20260830164057 | 77 | 0.0 | 0.0 | 0.00 | 0.01 | 0.01 | 61 | 1012.6 | |
| 20260830163053 | 77 | 0.0 | 0.0 | 0.00 | 0.01 | 0.01 | 58 | 1012.4 | |
| 20260830162051 | 76 | 0 | 0.0 | 3.0 | 0.00 | 0.01 | 0.01 | 57 | 1012.5 |
| 20260830161047 | 76 | 0.0 | 2.0 | 0.00 | 0.01 | 0.01 | 57 | 1012.5 | |
| 20260830160044 | 77 | 270 | 0.0 | 2.0 | 0.00 | 0.01 | 0.01 | 57 | 1012.4 |
| 20260830154038 | 77 | 194 | 1.0 | 5.0 | 0.00 | 0.01 | 0.01 | 58 | 1012.6 |
| 20260830153035 | 78 | 260 | 1.0 | 7.0 | 0.00 | 0.01 | 0.01 | 55 | 1012.6 |
| 20260830152031 | 77 | 199 | 2.0 | 4.0 | 0.00 | 0.01 | 0.01 | 56 | 1012.6 |
| 20260830151028 | 78 | 233 | 1.0 | 4.0 | 0.00 | 0.01 | 0.01 | 56 | 1012.7 |
| 20260830150025 | 78 | 217 | 3.0 | 12.0 | 0.00 | 0.01 | 0.01 | 54 | 1012.7 |
| 20260830145022 | 77 | 180 | 2.0 | 7.0 | 0.00 | 0.01 | 0.01 | 55 | 1012.7 |
| 20260830144019 | 77 | 229 | 1.0 | 5.0 | 0.00 | 0.01 | 0.01 | 56 | 1012.8 |
| 20260830143015 | 77 | 250 | 3.0 | 8.0 | 0.00 | 0.01 | 0.01 | 58 | 1012.8 |
| 20260830141109 | 78 | 216 | 2.0 | 10.0 | 0.00 | 0.01 | 0.01 | 55 | 1012.8 |